Location: Bühlhof
(48.7849°N, 8.6361°E)
Time: 07:02:55
(UTC+00:00)

ISS - Pass Details

Date: 19 January 2026
Orbit: 413 x 428 km, 51.6° (Epoch: 18 February)

Event Time Altitude Azimuth Distance (km) Brightness Sun altitude
Rises 19:09:30 0° 285° (WNW) 2,371 1.2 -30.3°
Reaches altitude 10° 19:11:37 10° 290° (WNW) 1,509 -0.1 -30.6°
Enters shadow 19:12:03 13° 291° (WNW) 1,340 -0.5 -30.7°
